sat.trackr.live / text

‹ back to catalog

2024-205M

NORAD 61905 · 2024-205M

PAYLOAD ACTIVE UNKNOWN

§ Identity

Operator
Country
PRC
Launch date
2024-11-11
Launch site
JSC
Launch vehicle
Mass (kg)
RCS (m²)

External: N2YO · Heavens-Above · Gunter

§ Orbital elements

Epoch: 2026-05-25T04:53:29.154624Z

Period
94.17 min
Inclination
97.3846°
Eccentricity
0.0006563
Mean motion
15.29094927 rev/d
Perigee alt
474.0 km
Apogee alt
483.0 km
Semi-major
6,856.7 km
B*
2.7142e-4
RAAN
219.8576°
Arg perigee
48.0354°
Mean anomaly
312.1445°
Rev number
8,499

§ Raw data

2024-205M1 61905U 24205M   26145.20380966  .00007596  00000+0  27142-3 0  99912 61905  97.3846 219.8576 0006563  48.0354 312.1445 15.29094927 84990

JSON: /api/v1/satellites/61905 · /tle

For live sub-satellite position, see the globe view (requires WebGL).

§ Visibility from observer

Set your observer location to see the next 7 days of passes ≥ 10°. The values pass through the URL so the page stays shareable.

No JS? Fill the form by hand. The geolocation button needs JavaScript.